Regional Weather Roundup
Issued by NWS

Home | Current Version | Previous Version | Graphics & Text | Print | Product List | Glossary On
Versions: 1 2 3 4 5 6 7 8 9 10 11 12 13 14 15 16 17 18 19 20 21 22 23 24 25 26 27 28 29 30 31 32 33 34 35 36 37 38 39 40 41 42 43 44 45 46 47 48 49 50
266
ASUS45 KABQ 170701
RWRNM
NEW MEXICO REGIONAL WEATHER ROUNDUP
NATIONAL WEATHER SERVICE ALBUQUERQUE NM
1200 AM MST TUE JAN 17 2017

NOTE: "FAIR" MEANS FEW OR NO CLOUDS BELOW 12,000 FEET AGL WITH NO
       SIGNIFICANT WEATHER OR OBSTRUCTIONS TO VISION.

      THIS PRODUCT IS RELEASED AS TWO VERSIONS.  ONE VERSION NEAR
      THE TOP OF THE HOUR CONTAINING PRELIMINARY DATA FROM ALBUQUERQUE
      AND OTHER STATIONS.  A FINAL VERSION WITH ADDITIONAL DATA IS
      ISSUED ABOUT 10 MINUTES AFTER THE HOUR.

NMZ501-503-504-510>518-170800-
NORTHWEST PLATEAU/NORTHCENTRAL MOUNTAINS

CITY           SKY/WX    TMP DP  RH WIND       PRES   REMARKS
FARMINGTON     CLOUDY    33  32  96 E3        30.10S
LOS ALAMOS     CLOUDY    32  32 100 S5        30.12S WCI  27
SANTA FE       CLOUDY    34  31  88 S9        30.11S WCI  27
TAOS           CLOUDY    30  25  80 CALM      30.11S
ANGEL FIRE     FLURRIES  26  24  92 NE5       30.11F WCI  20

$$
NMZ402-403-502-505>509-170800-
WESTCENTRAL MOUNTAINS/SOUTHWEST MOUNTAINS

CITY           SKY/WX    TMP DP  RH WIND       PRES   REMARKS
GALLUP         FLURRIES  32  30  92 NE3       30.09S
GRANTS         CLOUDY    34  33  96 CALM      30.11S
SILVER CITY    FAIR      32  31  95 NW6       30.07S WCI  26

$$
NMZ407-409-411-412-170800-
SOUTHERN DESERTS

CITY           SKY/WX    TMP DP  RH WIND       PRES   REMARKS
DEMING         FAIR      36  35  96 NE3       30.07R
LAS CRUCES     FAIR      36  34  92 CALM      30.08S
HOLLOMAN AFB   MOCLDY    41  36  83 SE7       30.11S
ALAMOGORDO     FAIR      39  34  81 S6        30.09R WCI  35
T OR C         MOCLDY    39  37  92 W6        30.07S WCI  35

$$
NMZ519>523-170800-
CENTRAL VALLEYS/CENTRAL HIGHLANDS

CITY           SKY/WX    TMP DP  RH WIND       PRES   REMARKS
ALBUQUERQUE    LGT RAIN  40  36  86 E10       30.11S WCI  33
DOUBLE EAGLE   FAIR      35  34  95 E6        30.11S WCI  30
MORIARTY ARPT  CLOUDY    34  32  92 CALM      30.14S
CLINES CORNERS NOT AVBL
BELEN          CLOUDY    41  37  86 E5        30.10R
SOCORRO        CLOUDY    39  37  90 CALM      30.09S

$$
NMZ524>526-539-540-170800-
SOUTHCENTRAL MOUNTAINS

CITY           SKY/WX    TMP DP  RH WIND       PRES   REMARKS
RUIDOSO        NOT AVBL

$$
NMZ527>531-170800-
NORTHEAST HIGHLANDS/NORTHEAST PLAINS

CITY           SKY/WX    TMP DP  RH WIND       PRES   REMARKS
LAS VEGAS      CLOUDY    29  27  92 N5        30.13F WCI  24
RATON          CLOUDY    30  25  81 CALM      30.12F
CLAYTON        CLOUDY    32  32 100 N8        30.13F WCI  25

$$
NMZ532>537-170800-
EASTCENTRAL PLAINS

CITY           SKY/WX    TMP DP  RH WIND       PRES   REMARKS
TUCUMCARI      CLOUDY    38  32  79 NE8       30.13F WCI  32
CANNON AFB     MOCLDY    34  34 100 NE10      30.13S WCI  26
CLOVIS AIRPORT FAIR      32  27  80 N9        30.13S WCI  24

$$
NMZ028-029-538-170800-
SOUTHEAST PLAINS

CITY           SKY/WX    TMP DP  RH WIND       PRES   REMARKS
ROSWELL        MOCLDY    42  34  73 NE12      30.13S
ARTESIA        FAIR      39  39 100 N8        30.12S WCI  34
CARLSBAD       CLOUDY    43  40  89 NE8       30.09R


$$




USA.gov is the U.S. government's official web portal to all federal, state and local government web resources and services.